Regional Weather Roundup
Issued by NWS

Home | Current Version | Previous Version | Text Only | Print | Product List | Glossary Off
Versions: 1 2 3 4 5 6 7 8 9 10 11 12 13 14 15 16 17 18 19 20 21 22 23 24 25 26 27 28 29 30 31 32 33 34 35 36 37 38 39 40 41 42 43 44 45 46 47 48 49 50

000
ASUS43 KBIS 170410
RWRND

NORTH DAKOTA REGIONAL WEATHER ROUNDUP
NATIONAL WEATHER SERVICE BISMARCK ND
1000 PM CST TUE JAN 16 2018

NOTE: "FAIR" INDICATES FEW OR NO CLOUDS BELOW 12,000 FEET WITH NO
SIGNIFICANT WEATHER AND/OR OBSTRUCTIONS TO VISIBILITY.


NDZ001>003-009>011-017-170500-
NORTHWEST NORTH DAKOTA

CITY           SKY/WX    TMP DP  RH WIND       PRES   REMARKS
WILLISTON      PTCLDY     1  -5  75 SW6       30.14F WCI -10
MINOT          CLOUDY    13  -2  51 S16       30.12F WCI  -3
MINOT AFB      CLOUDY    11  -1  59 SW13      30.12F WCI  -4
$$

NDZ018>021-031>035-040>046-170500-
SOUTHWEST NORTH DAKOTA

CITY           SKY/WX    TMP DP  RH WIND       PRES   REMARKS
BISMARCK       CLEAR      7  -4  60 SW5       30.28F WCI  -2
DICKINSON      CLEAR      9  -2  61 SW13      30.13F WCI  -7
GARRISON         N/A      5  -4  66 S9        30.19F WCI  -9
HETTINGER ARPT PTCLDY     6  -3  66 S3        30.20F
$$

NDZ004>008-012>016-024-026-027-054-170500-
NORTHEAST NORTH DAKOTA

CITY           SKY/WX    TMP DP  RH WIND       PRES   REMARKS
GRAND FORKS    FAIR       4  -2  76 S16       30.30F WCI -15
GRND FRKS AFB  FAIR       7  -4  61 S16       30.28F WCI -11
DEVILS LAKE    FAIR       5  -3  69 SW13      30.21F WCI -12
$$

NDZ022-023-025-028>030-036>039-047>053-170500-
SOUTHEAST NORTH DAKOTA

CITY           SKY/WX    TMP DP  RH WIND       PRES   REMARKS
FARGO          FAIR       6  -3  66 S20       30.40F WCI -14
JAMESTOWN      CLOUDY     5  -3  69 S13       30.27F WCI -12
$$





USA.gov is the U.S. government's official web portal to all federal, state and local government web resources and services.